Location: Mahannah Oil Field
(37.4664°N, 96.6003°W)
Time: 05:42:13
(UTC+00:00)

Courier 1B Rocket - Pass Details

Date: 25 January 2021
Orbit: 920 x 1202 km, 28.3° (Epoch: 05 March)

Event Time Altitude Azimuth Distance (km) Brightness Sun altitude
Exits shadow 11:49:20 - 215° (SW) 2,990 7.3 -20.9°
Reaches altitude 10° 11:50:24 10° 209° (SSW) 2,700 7.1 -20.7°
Maximum altitude 11:55:22 23° 159° (SSE) 1,983 6.9 -19.7°
Drops below altitude 10° 12:00:36 10° 110° (ESE) 2,853 8.7 -18.7°
Sets 12:04:00 0° 96° (E) 3,862 9.9 -18.1°
